This demonstration page uses our WeatherBlox Daily Observations layout. Learn more.

38.88101, -77.10428

Hourly Observations for March 15, 2017

Temp ( °F °C ) Dew Point ( °F °C ) Humidity (%) Winds ( mph kmh ) Pressure ( in mb ) Visibility ( mi km ) Precip ( " mm )
12:52 am 00:52 Mostly Cloudy 26 -3.3 9 -12.8 48 48 WNW 14 22 29.83 1010 10 16.09344 0 0
1:52 am 01:52 Mostly Clear 25 -3.9 7 -13.9 46 46 WNW 18 30 29.83 1010 10 16.09344 0 0
2:52 am 02:52 Mostly Clear 24 -4.4 7 -13.9 48 48 WNW 16 26 29.85 1011 10 16.09344 0 0
3:52 am 03:52 Mostly Clear 23 -5 7 -13.9 50 50 W 14 22 29.83 1010 10 16.09344 0 0
4:52 am 04:52 Mostly Clear 22 -5.6 7 -13.9 52 52 WNW 15 24 29.83 1010 10 16.09344 0 0
5:52 am 05:52 Mostly Cloudy 22 -5.6 6 -14.4 50 50 WNW 12 19 29.85 1011 10 16.09344 0 0
6:52 am 06:52 Mostly Cloudy 22 -5.6 7 -13.9 52 52 W 10 17 29.85 1011 10 16.09344 0 0
7:52 am 07:52 Mostly Cloudy 24 -4.4 6 -14.4 46 46 WNW 20 31 29.85 1011 10 16.09344 0 0
8:52 am 08:52 Mostly Cloudy 25 -3.9 7 -13.9 46 46 W 15 24 29.88 1012 10 16.09344 0 0
9:52 am 09:52 Mostly Cloudy 26 -3.3 7 -13.9 44 44 WNW 18 30 29.85 1011 10 16.09344 0 0
10:52 am 10:52 Cloudy 27 -2.8 8 -13.3 45 45 WNW 22 35 29.85 1011 10 16.09344 0 0
11:52 am 11:52 Cloudy 28 -2.2 9 -12.8 44 44 WNW 26 43 29.88 1012 10 16.09344 0 0
12:52 pm 12:52 Cloudy 30 -1.1 10 -12.2 43 43 WNW 25 41 29.88 1012 10 16.09344 0 0
1:52 pm 13:52 Cloudy 30 -1.1 10 -12.2 43 43 WNW 21 33 29.88 1012 10 16.09344 0 0
2:52 pm 14:52 Cloudy 30 -1.1 12 -11.1 47 47 W 20 31 29.88 1012 10 16.09344 0 0
3:52 pm 15:52 Cloudy 30 -1.1 12 -11.1 47 47 WNW 21 33 29.88 1012 10 16.09344 0 0
4:52 pm 16:52 Cloudy 32 0 10 -12.2 40 40 W 22 35 29.91 1013 10 16.09344 0 0
5:52 pm 17:52 Mostly Cloudy 32 0 10 -12.2 40 40 WNW 25 41 29.94 1014 10 16.09344 0 0
6:52 pm 18:52 Mostly Cloudy 33 0.6 8 -13.3 35 35 NW 24 39 29.94 1014 10 16.09344 0 0
7:52 pm 19:52 Mostly Cloudy 32 0 9 -12.8 38 38 WNW 21 33 29.97 1015 10 16.09344 0 0
8:52 pm 20:52 Mostly Cloudy 32 0 8 -13.3 36 36 WNW 14 22 30.03 1017 10 16.09344 0 0
9:52 pm 21:52 Mostly Cloudy 31 -0.6 7 -13.9 36 36 WNW 14 22 30.06 1018 10 16.09344 0 0
10:52 pm 22:52 Mostly Clear 31 -0.6 5 -15 33 33 WNW 21 33 30.09 1019 10 16.09344 0 0
11:52 pm 23:52 Mostly Clear 30 -1.1 6 -14.4 36 36 NW 18 30 30.09 1019 10 16.09344 0 0

Powered by AerisWeather